Location: Unspecified
(47.5840°N, 122.3000°W)
Time: 13:17:02
(UTC+00:00)

IRIDIUM 114 - Pass Details

Date: 20 March 2026
Orbit: 776 x 779 km, 86.4° (Epoch: 18 April)

Event Time Altitude Azimuth Distance (km) Brightness Sun altitude
Exits shadow 06:28:35 14° 270° (W) 2,073 6.8 -37.0°
Maximum altitude 06:30:12 16° 291° (WNW) 1,967 6.9 -37.2°
Drops below altitude 10° 06:33:18 10° 328° (NNW) 2,341 7.5 -37.5°
Sets 06:36:40 0° 350° (N) 3,274 8.4 -37.8°
